Temp_Advection
nan nan nan nan nan nan nan nan nan nan nan nan nan nan nan nan nan nan nan nan nan nan nan nan nan nan nan nan nan nan nan nan nan nan nan nan nan nan nan nan nan nan nan nan nan
nan 0 0 0 0 -0 -0 -0 -0 -0 0 -0 0 0 -0 0 0 -2 -1 0 0 0 0 0 0 -0 -0 -0 -1 -1 -0 0 0 -0 -0 -0 0 -1 -1 -4 -2 -2 -0 0 nan
nan 0 0 0 0 -0 -0 0 -0 0 0 -0 -0 0 -0 -0 -0 -1 0 0 0 0 0 0 0 -0 -1 -1 -1 -0 -0 -0 -0 -0 -0 -0 0 -2 -2 -1 -1 -1 -2 -0 nan
nan 0 0 0 -0 -0 -0 -0 0 -0 -0 0 -0 0 -0 0 -0 0 -0 0 0 0 0 -0 -0 -1 -1 -0 -0 -0 0 0 -0 0 -0 0 -0 -2 -1 0 0 0 0 -0 nan
nan 0 0 0 -0 -0 -0 -0 -0 -0 0 0 0 0 -0 -1 -0 0 0 0 0 0 -1 -1 -1 -1 -0 0 -0 -0 -0 0 -0 0 0 -0 -1 -0 0 0 -0 -0 -0 -1 nan
nan 0 0 0 -0 -0 -0 -0 0 0 0 0 0 0 -0 -1 1 0 0 0 0 -0 -1 -1 -0 -0 -0 -0 -0 0 0 -0 -1 -0 -1 -0 -1 -1 -0 -0 -1 -1 -2 -1 nan
nan 0 0 0 0 -0 -0 -0 -0 0 0 0 0 -0 -2 -0 0 0 0 0 0 -0 -0 0 0 -0 -0 -0 0 -0 -0 -1 -0 -1 -0 -0 -1 -0 -0 -1 -2 -2 -1 -1 nan
nan 0 0 0 0 0 -0 -0 -0 0 0 0 0 -0 -1 0 0 0 0 0 -0 -0 -0 0 0 -1 -0 0 -1 -1 -0 -0 -0 -1 -0 -1 -0 0 -0 -1 -2 -1 -1 -1 nan
nan 0 0 0 0 0 -0 0 0 0 0 0 0 -1 -0 0 -0 -0 0 0 0 -0 -0 -0 -1 -2 -1 -1 -0 -0 0 0 -0 -0 -0 -1 -0 -2 -1 -1 -1 -1 -1 -1 nan
nan 0 0 0 0 0 -0 -0 0 0 0 -0 -0 -0 -0 0 0 0 0 0 0 -0 -1 -1 -1 -1 -1 -0 0 0 0 -0 -0 -0 -0 -0 -0 -1 -1 -1 -1 -1 -1 -1 nan
nan 0 0 0 0 0 0 0 0 -0 -1 -0 -0 0 0 0 -0 0 -0 -1 -1 -3 -0 -2 -1 -0 0 0 0 -0 -0 -0 -0 -0 -0 -0 0 -0 -0 -1 -1 -1 -1 -1 nan
nan 0 0 0 0 0 0 -0 -0 0 0 0 -0 -0 0 -0 -0 0 -0 -1 -2 -1 -0 -1 0 0 0 -0 -0 -0 -0 -0 -0 -0 -0 -0 -0 -0 -0 -0 -0 -0 -0 -0 nan
nan 0 0 0 0 0 0 0 -0 0 0 -0 0 -0 -0 -0 -0 -0 -0 -1 -1 -0 -1 0 0 0 -0 -0 -0 -0 -0 0 -0 -0 -0 -0 -0 -0 -0 -0 -1 -0 -0 -0 nan
nan 0 0 0 0 0 0 0 0 -1 -0 -1 0 0 -0 -0 -0 -0 -0 -0 -1 -0 -0 0 -0 -0 -0 -0 -0 -0 0 0 0 -0 -0 -0 0 -0 -0 -0 -1 -0 0 -0 nan
nan 0 0 0 0 0 0 0 -0 -0 -0 -1 0 0 -0 -0 -0 -0 -0 -2 -1 -0 0 0 -0 -0 0 0 0 0 -0 -0 -0 0 0 -0 -0 -0 -0 -0 -0 -0 -0 -0 nan
nan 0 0 0 0 0 -0 -0 -0 -1 -0 0 0 -0 -0 -0 -0 -0 -0 -0 -1 -1 -0 0 0 -0 0 -0 -0 -0 -0 -1 -0 -0 -0 0 -0 0 -0 -0 -0 -0 -0 -0 nan
nan 0 0 0 0 0 0 0 -1 0 -0 -0 0 0 -0 -0 -0 -0 -0 -1 -0 -0 -0 -0 -0 -0 -0 -0 -0 -0 -0 -0 -0 -0 -0 -0 -0 -0 -0 -0 0 -0 -0 -0 nan
nan 0 0 0 0 1 -1 -1 0 -0 -0 0 -0 -0 0 0 -0 -0 -0 0 0 -0 -0 0 -0 0 -0 -0 0 0 -0 -1 0 -0 -0 -0 0 -0 -0 -0 -0 -0 -0 -0 nan
nan 0 0 1 0 1 0 -1 -0 -0 -0 0 -0 -0 0 -0 -0 -0 -0 -0 -0 -0 -1 0 -0 -0 -0 -0 -0 0 -0 -0 0 -0 -0 -0 -0 -0 -0 -0 -0 -0 -1 0 nan
nan -0 0 0 0 -1 -1 -0 0 -0 0 -0 -0 -0 0 0 -0 -0 -0 -0 -0 -0 -0 -0 0 0 -0 -0 -0 -0 0 -0 -0 -0 -1 -1 0 -0 -0 -0 -0 -0 -1 -0 nan
nan 0 0 0 1 0 -0 -0 -0 0 0 -0 -0 -0 0 0 0 0 0 -0 -0 -0 -0 -0 0 -0 -0 -0 0 -0 -0 -0 -0 -0 -0 -0 -0 -0 -0 -0 -0 -1 -0 -0 nan
nan -0 1 0 -1 -1 0 -0 0 0 0 -0 -0 -0 -0 0 0 0 0 -0 -0 -0 -0 -0 -0 0 0 -0 0 0 0 -0 -0 -0 -0 0 -1 -0 0 -0 0 -0 -0 0 nan
nan -0 0 -0 -0 0 -0 0 0 0 0 -0 -0 -0 -0 -0 0 0 0 -0 0 -0 -0 -0 0 -0 -0 -0 -0 0 0 -0 0 0 0 -0 -1 -0 0 -0 -0 -0 -0 0 nan
nan -0 0 0 -0 -0 0 0 0 0 0 -0 -0 -0 -0 -0 -0 0 0 0 0 -0 -0 -1 -0 -0 0 0 -0 -0 0 -0 -0 0 -0 -1 -1 -1 -0 -0 -1 -0 -0 0 nan
nan -0 -0 0 -0 0 0 0 0 0 0 0 -0 0 -0 0 0 0 0 0 0 0 -0 -0 0 -0 -0 -0 -0 -0 -1 -1 -1 -1 -0 -0 0 -0 0 0 -1 -0 -0 0 nan
nan -0 -0 0 0 0 0 0 0 0 0 0 -0 0 0 -0 -0 -0 0 -0 -0 0 -0 -0 0 -0 -0 -0 -0 -0 -0 -0 -1 -0 -0 -0 -1 -1 -0 0 -0 -0 0 0 nan
nan nan nan nan nan nan nan nan nan nan nan nan nan nan nan nan nan nan nan nan nan nan nan nan nan nan nan nan nan nan nan nan nan nan nan nan nan nan nan nan nan nan nan nan nan
Wind_Speed
6 6 4 5 4 4 6 6 5 7 7 8 14 18 18 18 15 8 20 18 19 16 10 4 7 12 13 12 8 4 4 3 6 7 7 17 10 20 10 11 31 29 25 16 5
5 5 4 3 3 5 7 6 6 6 6 8 13 14 10 10 13 27 19 15 13 14 11 3 6 8 8 6 7 6 4 6 6 3 4 14 14 15 11 33 23 38 29 21 15
5 5 3 3 3 4 5 5 5 6 5 6 10 10 1 6 6 20 20 18 16 14 12 7 8 11 11 10 11 6 4 4 9 10 10 12 17 27 27 15 26 28 29 23 21
3 3 3 2 2 3 5 5 5 6 6 7 7 6 2 3 3 15 17 15 16 15 5 13 5 5 6 6 8 6 6 11 13 18 13 6 3 22 30 20 24 26 24 23 23
3 2 2 2 2 3 4 4 4 6 9 12 9 6 8 19 13 14 12 12 12 17 18 14 21 10 6 5 10 7 10 12 28 17 30 14 11 11 32 31 29 29 27 27 23
2 1 2 2 2 2 3 4 6 7 9 8 7 7 6 18 18 15 13 9 12 20 25 27 13 20 13 6 9 4 8 15 27 23 32 11 16 25 32 30 31 31 30 27 26
2 1 2 1 0 1 3 6 11 12 13 16 21 21 28 15 18 14 12 13 13 19 25 27 22 7 6 5 7 8 6 8 23 18 11 14 9 10 30 27 28 31 30 27 26
2 1 2 2 2 3 5 8 13 11 13 12 10 8 12 17 19 15 12 14 14 17 28 22 10 25 8 9 8 5 7 5 7 20 13 11 6 16 28 25 28 30 31 30 27
2 2 2 3 4 7 10 14 12 11 8 5 6 10 6 15 23 18 17 9 13 16 18 5 18 23 14 5 5 8 3 4 7 10 5 9 5 23 22 22 27 30 29 31 29
3 2 4 5 8 12 17 16 13 11 10 8 7 12 10 16 22 13 23 9 6 6 9 17 13 10 11 8 3 4 3 4 4 6 5 4 3 11 15 23 22 28 32 32 33
4 4 5 8 14 17 21 20 9 10 28 15 16 22 14 16 24 24 11 24 22 24 6 25 13 9 8 7 4 5 4 3 3 4 5 6 6 9 12 22 24 28 29 34 34
5 6 7 11 16 19 19 7 11 14 13 17 18 17 10 11 13 27 26 13 20 14 4 8 13 6 5 7 7 8 6 5 5 6 5 4 6 6 14 13 17 21 31 33 37
6 7 9 12 16 16 10 14 20 14 8 8 10 11 13 18 15 17 16 10 14 13 13 8 3 13 7 9 8 4 5 5 5 5 3 2 4 6 5 10 20 24 23 30 33
7 9 10 12 14 14 12 21 14 7 5 4 2 3 2 5 9 16 15 6 7 4 4 8 7 7 8 6 5 3 5 5 7 4 1 3 3 3 7 8 19 21 24 26 32
8 9 11 11 13 17 17 18 9 2 4 5 2 3 7 7 7 12 9 22 7 4 5 0 6 7 8 4 5 5 9 6 3 1 3 3 3 4 5 7 11 19 22 24 31
9 11 11 10 14 15 21 15 5 6 4 0 3 3 6 9 4 6 9 10 6 9 10 3 2 4 3 4 2 8 4 5 4 3 2 1 2 4 2 3 6 17 19 21 30
11 11 11 12 14 17 21 13 5 5 3 4 3 3 3 2 4 4 5 6 3 5 5 5 3 3 7 5 5 8 5 4 5 4 4 4 4 5 5 4 5 14 19 18 23
12 11 11 12 15 19 23 5 4 3 4 2 5 5 3 2 3 3 3 3 5 5 3 3 3 3 6 3 2 4 3 4 4 2 4 7 3 5 3 4 4 12 17 17 18
14 12 13 14 15 20 11 4 7 6 5 6 4 4 2 2 4 4 3 1 2 2 5 3 0 2 7 5 3 4 5 1 4 2 2 3 5 6 5 8 7 16 28 27 21
17 13 13 14 15 17 5 4 2 3 2 4 4 3 4 4 3 3 2 2 2 2 2 3 3 1 2 3 8 4 1 2 4 3 4 5 5 5 5 8 8 17 24 32 26
18 7 11 13 15 7 4 4 3 1 3 3 3 4 4 4 4 3 4 0 3 3 7 3 3 2 2 2 1 2 2 5 4 3 4 3 6 6 8 7 9 21 28 31 25
10 4 13 16 5 3 3 5 5 4 4 3 4 4 5 3 3 3 5 4 8 11 4 2 4 1 1 4 1 1 3 3 4 5 3 3 6 7 9 16 24 30 35 30 17
9 6 9 13 4 0 1 3 3 3 3 2 3 3 2 4 4 4 3 2 11 6 7 7 1 2 4 4 4 1 1 3 4 3 5 4 6 5 20 22 22 21 21 20 21
6 2 3 4 4 6 5 4 4 4 4 5 4 5 4 3 3 4 3 1 4 4 7 10 4 6 6 7 4 1 3 2 5 3 3 8 13 18 15 12 22 23 17 18 22
4 2 4 2 2 5 4 5 5 4 4 5 3 4 5 4 2 4 3 3 1 5 4 4 3 3 6 5 5 6 7 9 8 6 6 8 7 13 13 11 23 21 18 19 22
6 5 4 4 14 9 3 5 5 4 5 3 5 6 5 5 6 6 6 4 4 3 3 1 2 3 4 7 9 12 13 12 14 11 12 16 17 21 24 19 22 21 19 20 22
6 7 3 1 5 4 4 6 6 13 2 4 10 6 5 5 7 3 6 4 6 8 6 5 3 2 4 3 4 6 16 17 6 6 7 6 10 10 8 17 19 22 22 24 22
Wind_Direction
99 78 60 52 35 53 52 37 56 57 77 100 112 103 95 85 74 76 39 15 1 10 8 33 64 101 94 81 75 65 61 53 29 29 316 347 18 10 357 45 29 28 24 8 328
90 72 50 46 27 39 48 28 41 61 77 119 140 125 90 61 42 53 37 14 9 16 24 90 93 102 78 53 36 58 78 41 55 39 316 344 9 6 13 29 0 7 18 14 3
85 73 48 30 27 38 46 32 37 61 85 126 162 176 302 329 18 17 25 20 13 14 23 53 83 90 69 54 18 31 69 303 6 16 6 338 14 46 40 21 4 357 0 8 16
77 65 52 30 10 31 48 38 36 61 87 104 123 168 263 270 75 12 16 25 28 23 33 57 79 65 70 54 25 98 43 35 11 51 30 24 32 62 39 13 19 24 28 25 24
86 56 61 28 6 27 39 48 49 87 117 112 106 105 93 74 39 24 20 29 35 43 54 63 62 66 68 60 53 54 13 56 28 52 32 35 50 63 21 15 23 22 25 27 24
100 64 65 25 341 46 60 81 96 94 118 118 100 111 76 73 36 23 23 27 52 59 63 58 86 91 81 74 57 35 47 46 27 26 24 45 42 37 5 14 22 30 32 25 26
124 77 83 87 75 36 90 113 114 105 119 114 102 93 77 56 24 30 48 32 69 70 70 72 74 118 111 90 69 55 42 30 31 28 23 354 28 8 5 18 32 37 38 33 24
115 97 75 105 116 138 129 131 129 121 123 122 82 100 74 43 33 46 66 67 85 80 78 75 81 67 64 105 45 46 49 33 2 35 22 20 322 355 8 33 28 37 35 31 28
137 125 113 108 108 122 126 128 118 108 116 92 89 83 70 37 36 30 31 66 90 87 78 88 57 55 48 77 39 17 69 52 349 49 15 51 341 325 359 45 42 28 29 27 20
133 127 129 123 121 127 123 115 103 98 101 80 59 84 76 44 37 30 44 48 147 89 42 42 64 65 39 48 66 353 36 6 24 340 24 69 273 300 4 43 45 38 27 24 21
143 144 135 133 135 133 127 122 102 72 66 65 77 93 107 65 39 30 20 53 75 64 62 36 63 52 32 45 68 92 82 47 313 346 34 355 321 333 18 42 33 30 29 21 15
146 147 146 143 146 145 143 111 113 121 63 72 82 85 82 62 43 35 52 66 60 52 49 37 48 3 65 42 64 58 38 359 313 339 1 26 333 344 45 29 28 19 23 19 10
150 152 149 148 156 154 146 126 127 117 94 51 56 65 82 65 44 26 44 66 65 56 50 74 357 46 49 31 34 46 54 322 264 325 1 55 4 360 329 22 20 21 14 13 11
153 158 149 147 157 156 142 144 135 123 82 306 30 42 89 101 49 50 48 61 62 79 82 70 16 55 48 43 10 351 356 304 300 30 323 40 281 328 333 357 7 8 8 3 360
154 156 154 155 154 153 153 151 136 72 63 267 61 77 78 87 127 25 48 69 88 62 92 144 36 33 42 349 359 260 311 280 303 154 65 7 70 275 326 354 335 328 357 356 355
149 151 152 149 148 147 155 151 129 46 251 120 143 123 78 64 66 66 52 72 85 62 57 68 48 49 342 311 349 304 319 30 38 54 44 129 76 295 316 274 309 322 338 348 348
146 148 157 152 146 149 155 146 49 122 296 175 148 115 107 89 63 66 35 25 67 70 21 7 13 357 5 14 11 7 32 6 9 9 218 339 7 232 195 220 321 334 335 338 349
146 142 143 146 146 151 153 65 89 220 210 147 113 104 108 111 67 81 56 40 36 73 89 106 345 32 349 79 303 334 58 131 190 288 297 322 252 262 217 230 319 348 353 343 349
144 141 141 137 144 155 154 72 194 206 181 136 86 108 109 57 114 86 69 129 223 140 119 121 251 348 59 66 54 339 48 134 112 12 297 306 308 311 216 252 316 340 347 348 341
143 141 131 138 144 157 83 175 145 209 107 103 128 129 152 161 99 96 163 213 158 51 83 194 95 63 13 86 35 74 339 58 13 55 320 302 288 243 288 287 326 325 335 332 333
147 130 141 138 142 138 141 199 171 119 129 89 128 113 133 141 135 157 170 192 182 100 62 108 95 309 56 52 190 3 23 53 111 117 161 292 266 224 266 288 306 307 318 318 322
152 90 151 150 90 65 140 168 132 130 95 96 89 101 140 141 125 151 170 206 166 146 132 40 136 181 227 311 94 211 176 124 116 274 226 158 271 283 293 314 312 311 317 324 323
126 104 159 171 129 142 168 99 110 123 116 99 102 107 104 134 116 130 117 15 151 141 161 175 1 22 347 359 12 164 304 116 110 80 208 154 259 249 320 313 307 313 326 329 332
146 89 136 171 135 133 133 141 110 87 97 104 111 91 99 101 43 146 132 123 136 160 174 153 153 168 192 204 144 212 232 170 132 130 218 223 273 300 321 318 321 331 324 324 332
145 155 164 182 210 138 110 132 130 132 106 122 87 145 145 125 114 149 134 133 115 152 120 145 199 170 251 230 190 223 212 183 188 197 188 269 256 277 290 290 314 321 326 320 335
142 151 128 92 145 123 106 178 140 140 141 174 134 166 148 149 180 188 143 180 184 152 135 112 275 172 271 247 216 247 251 239 215 225 237 257 276 272 268 297 305 315 323 318 326
146 141 154 84 129 106 187 160 166 135 154 155 160 123 140 196 168 129 181 172 175 162 173 158 134 84 271 347 312 288 240 225 209 186 187 200 240 267 272 289 302 308 311 315 314
Height
1530 1531 1532 1531 1532 1531 1530 1533 1531 1533 1533 1534 1535 1534 1534 1535 1536 1532 1529 1536 1533 1530 1527 1527 1527 1527 1527 1529 1531 1533 1545 1553 1554 1555 1557 1547 1546 1548 1545 1544 1544 1549 1548 1545 1543
1530 1531 1534 1533 1532 1532 1531 1533 1534 1534 1536 1535 1536 1536 1536 1537 1537 1533 1540 1538 1535 1530 1529 1528 1527 1528 1529 1533 1535 1537 1550 1558 1559 1559 1558 1552 1550 1550 1548 1548 1548 1546 1548 1551 1549
1530 1532 1534 1533 1533 1532 1533 1534 1535 1535 1535 1536 1536 1538 1539 1539 1539 1543 1540 1538 1535 1531 1530 1527 1528 1528 1531 1536 1541 1544 1558 1559 1559 1558 1557 1555 1554 1558 1554 1560 1563 1559 1552 1552 1551
1532 1532 1534 1535 1534 1533 1533 1535 1536 1535 1537 1537 1537 1540 1540 1541 1550 1547 1542 1540 1537 1534 1532 1528 1529 1532 1539 1545 1547 1555 1560 1560 1561 1558 1557 1557 1556 1561 1563 1570 1566 1562 1558 1553 1550
1532 1533 1533 1535 1535 1534 1534 1535 1536 1537 1539 1539 1540 1541 1542 1542 1550 1548 1544 1542 1540 1536 1531 1531 1532 1536 1544 1548 1548 1552 1558 1560 1561 1559 1561 1559 1559 1565 1566 1566 1564 1560 1556 1554 1551
1532 1533 1532 1534 1535 1535 1535 1537 1538 1539 1541 1541 1541 1542 1543 1543 1551 1548 1546 1545 1542 1539 1537 1534 1538 1540 1546 1550 1553 1559 1560 1562 1562 1558 1562 1564 1565 1566 1569 1566 1562 1559 1558 1555 1552
1531 1534 1533 1535 1536 1536 1536 1538 1539 1541 1542 1543 1543 1544 1543 1555 1554 1551 1549 1545 1544 1543 1541 1542 1540 1542 1549 1553 1559 1560 1564 1564 1567 1566 1568 1564 1569 1574 1572 1566 1563 1562 1561 1558 1554
1531 1532 1534 1534 1536 1537 1538 1541 1541 1544 1545 1545 1545 1544 1553 1558 1555 1552 1550 1547 1547 1546 1545 1546 1545 1546 1551 1556 1560 1565 1570 1579 1574 1573 1574 1568 1581 1573 1571 1567 1565 1565 1562 1560 1557
1532 1532 1532 1535 1536 1538 1539 1543 1544 1545 1548 1548 1547 1547 1558 1561 1556 1554 1552 1551 1550 1549 1549 1548 1547 1553 1556 1562 1574 1578 1585 1582 1582 1580 1578 1577 1581 1573 1571 1569 1569 1566 1565 1562 1557
1532 1533 1533 1536 1537 1539 1541 1545 1547 1549 1550 1550 1550 1551 1561 1564 1560 1558 1556 1552 1551 1551 1550 1550 1553 1564 1565 1568 1594 1586 1586 1584 1584 1583 1580 1583 1583 1575 1573 1573 1573 1571 1566 1563 1560
1532 1533 1535 1536 1538 1541 1544 1547 1551 1555 1554 1558 1559 1558 1562 1564 1562 1558 1555 1555 1552 1552 1560 1562 1566 1584 1584 1581 1580 1582 1585 1587 1584 1581 1583 1584 1582 1577 1575 1574 1574 1573 1571 1566 1563
1532 1534 1535 1537 1540 1543 1545 1547 1550 1557 1562 1564 1563 1563 1565 1565 1564 1562 1560 1559 1561 1567 1566 1576 1584 1586 1582 1582 1582 1584 1587 1589 1585 1581 1583 1585 1581 1579 1578 1578 1577 1575 1571 1570 1565
1531 1534 1535 1537 1542 1544 1545 1549 1552 1554 1562 1568 1568 1568 1569 1568 1568 1567 1566 1567 1570 1576 1580 1587 1594 1588 1586 1588 1587 1587 1591 1592 1593 1586 1582 1582 1588 1584 1580 1577 1575 1574 1574 1573 1571
1531 1533 1536 1538 1545 1544 1547 1551 1554 1555 1571 1572 1569 1570 1570 1569 1573 1573 1570 1570 1575 1584 1585 1591 1593 1591 1592 1592 1591 1590 1589 1588 1588 1590 1596 1586 1602 1587 1584 1579 1576 1575 1575 1574 1571
1531 1533 1537 1539 1540 1544 1549 1551 1555 1557 1598 1573 1570 1571 1570 1571 1576 1577 1576 1574 1579 1583 1585 1598 1597 1596 1597 1598 1595 1595 1588 1588 1586 1590 1592 1590 1603 1592 1586 1584 1580 1577 1576 1575 1572
1531 1534 1536 1540 1541 1544 1548 1553 1556 1576 1596 1571 1570 1571 1572 1573 1576 1579 1578 1579 1583 1584 1588 1595 1596 1598 1599 1597 1597 1593 1588 1590 1591 1596 1607 1591 1597 1602 1592 1587 1582 1578 1577 1575 1571
1531 1534 1537 1539 1541 1544 1549 1554 1574 1589 1575 1573 1571 1572 1573 1576 1579 1582 1586 1589 1595 1607 1604 1600 1600 1600 1600 1599 1598 1598 1599 1631 1618 1624 1617 1595 1599 1593 1587 1584 1583 1581 1577 1574 1570
1530 1534 1537 1539 1541 1544 1549 1557 1585 1580 1573 1567 1570 1575 1579 1578 1581 1586 1590 1597 1592 1596 1611 1613 1613 1603 1604 1604 1606 1604 1606 1637 1652 1629 1613 1595 1596 1596 1584 1583 1582 1581 1578 1573 1570
1530 1535 1538 1539 1542 1546 1550 1581 1575 1570 1564 1566 1570 1576 1579 1580 1582 1586 1592 1596 1594 1593 1608 1614 1607 1602 1602 1603 1605 1606 1615 1610 1623 1613 1613 1602 1594 1586 1581 1581 1581 1579 1574 1571 1568
1530 1535 1539 1540 1543 1547 1553 1567 1563 1562 1563 1564 1570 1574 1582 1583 1584 1586 1591 1594 1595 1595 1596 1603 1609 1603 1604 1604 1606 1607 1611 1624 1639 1661 1662 1613 1602 1603 1583 1580 1579 1575 1572 1569 1566
1532 1535 1540 1541 1544 1548 1563 1564 1561 1562 1562 1566 1570 1575 1580 1583 1587 1588 1592 1593 1593 1597 1597 1603 1615 1608 1604 1608 1611 1614 1617 1622 1629 1631 1653 1637 1606 1588 1583 1580 1577 1573 1569 1566 1563
1530 1536 1540 1542 1546 1553 1560 1556 1559 1561 1563 1565 1568 1572 1578 1581 1585 1588 1590 1590 1591 1593 1600 1604 1617 1615 1607 1608 1609 1610 1614 1617 1645 1651 1635 1629 1609 1581 1580 1577 1573 1568 1565 1561 1559
1530 1536 1540 1540 1552 1557 1555 1556 1558 1561 1564 1567 1569 1571 1576 1581 1587 1587 1590 1590 1591 1593 1598 1601 1619 1642 1615 1614 1610 1615 1620 1627 1632 1627 1619 1640 1601 1577 1577 1572 1568 1567 1562 1558 1557
1530 1539 1541 1541 1542 1544 1551 1556 1561 1561 1563 1565 1571 1572 1577 1581 1584 1588 1591 1591 1592 1593 1595 1597 1608 1618 1626 1619 1617 1620 1622 1625 1624 1643 1624 1606 1588 1578 1576 1573 1567 1563 1560 1556 1554
1528 1533 1535 1542 1543 1543 1546 1553 1559 1562 1564 1566 1570 1571 1575 1583 1585 1586 1588 1591 1592 1593 1596 1598 1612 1612 1608 1602 1603 1600 1605 1607 1616 1610 1610 1586 1590 1580 1576 1572 1566 1562 1559 1555 1552
1527 1532 1534 1536 1538 1542 1546 1553 1556 1560 1562 1566 1568 1571 1573 1579 1580 1587 1585 1588 1589 1593 1595 1598 1609 1603 1604 1594 1596 1594 1590 1590 1593 1594 1596 1590 1586 1573 1570 1569 1565 1561 1558 1554 1551
1527 1530 1532 1539 1540 1543 1547 1550 1553 1556 1562 1563 1566 1570 1575 1576 1577 1580 1582 1583 1585 1588 1593 1597 1604 1610 1611 1596 1594 1600 1575 1576 1576 1575 1577 1584 1572 1568 1567 1566 1562 1558 1556 1552 1549